Theta_e
330 331 330 330 328 326 330 333 332 331 330 330 330 331 331 330 329 329 328 329 331 331 330 330 329 331 331 332 332 331 331 330 328 330 331 330 328 327 328 328 327 326 326 327 327 328 329 329 328 327 327 326 326 326 326 324 324 322 320 319 318 317 317
330 331 328 328 327 327 331 333 332 331 331 330 330 330 330 329 329 330 329 330 330 330 331 331 330 331 331 331 331 330 330 329 327 328 329 330 330 329 328 327 326 326 327 327 327 327 328 328 328 328 328 327 326 326 324 323 323 320 318 316 315 315 314
332 331 327 327 327 327 330 332 331 331 332 331 330 331 330 329 328 328 328 329 330 329 330 330 330 330 330 330 330 329 329 328 327 328 328 329 329 329 329 328 327 328 329 329 328 327 327 328 328 328 328 328 327 326 323 322 321 319 317 315 314 313 312
331 330 327 327 328 327 328 330 332 332 331 330 330 329 327 326 324 324 325 326 328 329 329 330 330 331 332 331 329 327 328 328 328 328 327 327 328 329 331 329 327 327 329 329 329 328 328 328 328 328 328 328 327 325 323 322 320 318 316 314 312 311 310
329 329 327 326 325 324 325 329 331 331 330 328 326 325 324 323 322 322 323 324 327 329 330 330 330 331 332 332 329 328 327 327 328 327 325 326 326 327 328 328 326 327 327 328 328 328 328 328 328 328 328 327 326 324 321 319 317 316 314 312 311 309 309
328 327 325 323 322 323 327 330 331 330 329 326 323 322 321 320 322 323 323 323 326 328 328 329 330 331 331 332 330 328 328 327 327 328 327 326 325 324 326 327 327 328 327 328 328 327 327 328 327 327 327 326 325 322 320 317 316 314 312 311 309 309 309
329 327 325 323 322 326 330 330 330 330 329 327 325 323 320 319 321 324 324 325 326 326 327 327 328 329 329 330 331 329 328 328 327 328 328 327 326 325 325 327 327 327 327 328 328 326 326 327 327 327 326 325 323 320 319 317 315 314 312 310 309 309 310
328 326 325 323 324 329 330 328 328 330 329 329 327 324 321 319 320 321 320 322 323 323 327 327 327 329 328 328 330 328 327 327 327 327 327 327 327 326 327 327 327 326 327 328 328 326 326 326 327 327 325 324 321 319 318 316 314 313 311 309 308 309 310
326 325 325 325 327 329 329 327 328 329 329 329 328 326 325 323 321 321 320 321 323 323 325 325 325 327 326 326 329 328 326 327 326 326 327 326 326 327 328 327 327 328 327 327 328 327 327 326 326 326 325 323 321 319 317 315 314 313 310 309 309 309 311
325 325 326 327 328 328 328 328 328 328 329 328 328 327 327 324 321 323 325 325 326 326 325 323 323 324 324 326 328 328 328 327 325 325 326 325 326 326 326 326 327 327 327 327 328 327 327 326 326 327 326 323 321 319 318 316 314 312 310 309 309 310 311
326 326 327 326 326 326 326 326 326 328 328 328 328 326 325 323 319 323 327 325 325 326 325 325 324 323 323 326 327 328 329 327 325 326 325 324 326 326 326 326 325 326 326 327 328 327 327 326 325 326 326 323 321 321 319 317 315 313 310 310 309 310 312
324 326 328 326 323 323 321 321 325 328 328 328 327 324 324 324 322 324 327 325 325 325 325 325 324 324 324 326 327 328 328 327 327 329 327 325 326 325 326 326 326 327 327 327 327 326 326 325 324 324 324 323 322 321 320 319 316 313 311 311 310 310 312
325 327 327 324 321 320 318 322 327 327 327 327 325 323 324 326 325 325 326 325 325 326 325 325 325 325 325 325 326 326 326 325 327 329 328 327 327 326 326 326 326 327 326 326 326 325 326 326 324 324 323 322 322 321 320 320 317 314 312 312 311 310 312
327 327 326 323 321 319 320 325 328 326 326 326 324 324 325 325 325 326 325 325 325 325 326 325 325 325 324 324 325 325 324 324 325 325 326 326 327 327 327 326 326 326 326 327 327 326 326 325 324 325 324 322 322 321 321 320 317 315 314 313 311 310 312
327 327 324 322 320 321 322 326 326 326 327 326 324 325 325 324 325 325 325 325 325 325 325 324 324 325 325 325 325 324 323 323 324 324 324 325 326 328 328 327 327 327 326 327 328 327 327 326 325 325 323 321 321 320 320 319 317 316 316 315 313 311 312
326 325 322 320 321 322 325 327 327 326 327 325 324 325 325 324 325 325 325 325 325 324 324 323 324 325 325 325 324 324 324 324 324 324 324 324 324 327 328 327 327 326 325 327 328 327 327 327 326 324 322 320 319 318 319 318 317 317 317 316 315 313 312
326 324 320 321 323 324 327 328 327 327 327 326 326 326 324 322 323 324 324 324 324 324 324 323 323 324 324 324 324 323 323 323 324 323 323 323 322 325 327 327 327 326 325 327 327 326 326 326 324 322 321 319 317 317 317 317 317 318 317 317 317 315 313
326 322 321 323 325 326 328 328 327 327 327 326 326 325 322 321 322 322 322 323 324 324 323 323 323 323 323 323 324 323 322 322 323 323 322 322 322 323 326 327 327 327 327 328 327 326 325 324 322 321 321 319 317 317 317 317 317 316 317 317 317 316 315
328 325 324 325 326 327 328 328 328 327 326 325 324 322 320 320 320 320 320 322 322 322 322 322 322 322 322 322 323 323 323 322 322 322 321 322 322 323 324 327 328 326 326 328 327 325 324 323 322 321 320 319 318 317 317 316 316 316 316 317 317 316 316
327 325 324 325 326 327 327 327 327 326 324 323 320 319 320 320 320 319 319 319 319 319 320 319 320 320 320 321 321 323 323 323 322 322 321 321 322 323 324 327 327 324 326 327 325 323 322 321 321 321 320 319 318 318 318 317 317 317 317 317 317 317 316
325 324 325 324 324 326 326 326 325 324 323 321 319 320 320 320 320 320 319 319 319 318 317 317 317 317 318 319 320 321 323 323 322 322 322 322 322 322 323 327 327 326 327 326 324 322 322 321 321 320 320 320 319 319 319 318 318 318 318 318 318 318 317
321 322 325 324 323 324 325 325 324 322 322 321 321 320 319 319 319 318 318 318 319 318 317 316 316 316 317 319 319 320 321 322 321 321 321 321 322 322 322 324 326 326 326 326 324 322 321 321 321 321 321 321 321 320 320 320 319 319 319 319 319 319 319
321 321 324 324 324 325 324 323 322 321 321 320 320 319 318 318 318 317 318 318 316 315 316 317 316 316 317 317 318 318 319 320 321 321 320 320 321 321 322 322 323 324 324 324 322 321 320 320 320 320 321 321 321 321 320 320 320 320 320 320 319 319 320
325 324 325 325 325 325 324 322 321 320 319 318 317 317 319 319 319 319 319 317 312 308 310 312 313 312 313 316 318 319 318 319 320 320 320 319 320 321 321 321 320 320 321 320 318 318 318 318 317 318 320 320 320 320 320 320 320 319 319 319 319 319 319
325 325 325 325 325 325 324 321 318 316 314 312 312 314 316 318 318 317 317 314 310 309 309 309 309 308 308 312 317 319 319 319 319 319 320 319 319 319 321 321 319 318 318 317 316 316 316 315 315 315 316 316 316 316 318 318 319 319 319 319 318 318 318
323 323 324 324 324 323 320 316 313 313 313 313 314 315 315 316 316 315 314 313 313 313 313 312 312 311 309 310 311 313 317 319 318 318 319 319 318 319 319 320 320 318 318 317 316 316 316 315 314 314 314 313 313 312 313 313 315 317 318 319 319 318 318
321 321 323 323 323 321 317 314 313 314 316 317 317 317 316 316 316 314 313 313 313 314 314 314 314 314 313 312 310 310 316 319 318 319 319 319 320 320 319 320 320 320 320 318 316 317 318 318 317 315 313 312 312 311 311 310 310 311 312 314 315 315 316
319 320 321 321 321 318 315 314 315 316 318 318 317 316 316 316 315 314 314 313 313 313 314 314 314 314 314 314 313 312 314 316 317 318 319 319 320 320 320 320 321 320 321 321 319 317 317 319 320 319 317 315 314 314 314 312 311 311 310 311 310 310 311
320 320 320 319 318 316 315 315 316 317 318 317 316 316 316 316 316 315 316 316 315 315 315 314 314 314 314 315 315 315 316 317 318 319 319 319 318 319 319 319 319 319 320 320 320 318 316 317 318 319 320 320 319 319 319 317 315 313 312 311 311 311 311
320 320 319 318 317 316 316 317 318 318 318 318 318 318 318 318 317 317 317 317 317 317 317 316 315 315 316 316 316 316 318 319 321 321 321 320 319 319 320 318 317 318 319 319 318 317 315 314 314 314 317 319 319 319 319 319 318 317 315 314 314 314 314
319 319 319 319 318 318 318 318 318 319 319 319 319 318 319 319 318 318 318 318 318 318 318 318 318 317 318 317 317 317 317 318 319 321 321 321 321 321 321 318 317 317 318 318 318 316 315 314 314 314 315 317 319 319 319 319 319 319 318 318 317 316 316
317 317 318 318 318 317 317 318 318 317 317 317 317 317 317 317 317 317 317 317 318 318 317 317 317 317 318 318 318 318 317 317 318 319 319 319 319 320 319 319 318 318 317 317 317 317 316 316 316 316 315 316 317 318 319 319 319 320 320 319 318 317 316
314 315 315 315 316 316 316 316 316 316 316 316 316 315 315 315 316 316 316 316 316 315 315 315 315 315 315 315 315 315 315 316 316 316 317 317 316 316 317 317 317 317 317 317 317 317 317 317 317 317 317 317 317 318 318 319 319 320 319 319 319 317 316
313 312 312 311 312 312 312 311 311 311 311 312 312 311 310 311 311 312 311 310 310 309 310 310 310 310 310 310 310 309 309 310 311 311 312 312 312 312 313 315 315 314 314 314 314 315 315 315 315 316 316 316 317 318 318 318 318 318 318 319 319 318 317
307 307 306 304 304 304 304 304 304 304 304 304 304 304 303 303 303 304 303 303 303 303 304 304 304 304 305 305 305 304 305 305 305 305 306 306 306 308 309 311 312 312 311 310 310 310 309 309 309 310 310 311 312 313 315 316 317 318 318 319 319 318 317
301 301 301 300 300 300 300 300 300 300 301 302 302 302 301 301 301 302 303 303 303 301 301 301 301 301 301 301 301 301 301 302 302 302 302 302 302 302 304 306 307 306 306 305 305 304 304 304 304 304 305 305 306 307 309 311 313 315 316 317 317 317 316
299 299 299 299 299 299 299 300 300 300 301 304 306 305 304 304 304 305 305 306 305 304 302 300 299 299 300 299 299 300 300 299 300 300 299 299 299 299 300 301 301 301 301 301 300 300 300 300 300 300 300 301 301 302 303 304 306 307 309 310 312 314 315
Wind_Speed
17 19 19 14 15 18 16 14 14 14 14 13 12 12 12 11 9 9 10 10 10 9 9 10 11 11 11 11 11 10 9 11 11 10 10 11 12 11 8 7 6 5 6 7 7 7 7 7 7 6 6 6 5 5 7 8 8 10 11 10 9 8 8
20 20 19 16 16 18 16 14 14 13 13 12 11 11 10 10 10 9 9 9 9 9 8 8 8 9 11 12 12 11 11 11 10 11 12 11 11 12 10 8 6 7 8 6 6 8 8 8 9 9 7 7 7 6 8 9 9 11 12 10 8 7 7
23 22 20 18 19 18 15 14 13 12 12 12 11 11 11 10 10 10 10 9 8 8 8 8 8 9 10 12 13 13 12 12 11 11 11 12 12 10 9 9 9 10 10 7 6 8 8 8 9 11 9 9 10 9 8 9 9 10 10 10 9 8 9
23 22 20 20 20 17 15 15 14 13 12 12 11 11 11 11 11 10 10 9 8 8 8 8 8 8 9 10 12 13 13 12 10 10 10 11 11 10 8 10 12 12 10 8 7 7 8 8 9 12 11 11 12 10 9 9 9 9 9 9 9 9 10
21 21 20 21 20 18 17 16 14 13 12 12 12 11 11 12 12 11 10 9 8 8 7 8 8 8 8 9 10 11 12 12 11 11 11 10 11 11 11 12 12 12 11 9 8 9 9 9 10 13 13 13 12 11 11 11 10 9 9 9 9 9 11
21 21 20 20 20 19 19 16 13 12 12 12 12 11 11 12 12 11 10 9 8 8 7 8 8 8 8 8 8 10 11 12 12 11 11 11 12 11 12 12 12 11 11 8 8 10 11 10 11 13 14 14 12 12 12 11 11 10 9 9 9 10 11
22 21 20 19 19 19 17 15 13 12 11 11 12 12 11 11 11 10 10 9 9 8 8 8 8 7 8 7 7 9 10 11 12 12 11 11 13 13 12 13 12 13 12 8 7 10 12 13 12 13 14 13 12 12 12 12 11 10 9 9 10 10 11
22 21 20 19 18 17 16 15 13 11 11 11 10 11 11 11 11 10 10 10 9 9 8 7 8 7 7 7 7 8 9 9 9 10 10 10 12 13 12 12 13 14 13 9 8 9 11 14 15 15 15 14 12 12 12 12 11 10 11 11 10 11 12
23 23 22 20 18 17 16 14 13 12 11 11 10 10 11 11 11 10 10 10 8 8 8 8 8 7 7 7 7 7 7 7 6 7 9 9 10 12 12 12 12 12 13 10 9 9 10 14 16 15 16 14 13 13 13 12 11 11 12 12 12 12 12
26 26 24 21 19 18 17 15 14 13 11 11 11 11 11 11 11 10 9 9 8 7 7 7 7 8 7 7 7 6 5 6 6 6 8 7 8 10 11 11 11 11 12 11 9 9 11 16 18 16 14 13 12 13 13 12 12 12 12 12 13 12 12
27 26 23 21 20 20 19 17 15 14 12 12 11 12 11 11 12 11 9 9 8 7 7 6 6 8 8 8 8 7 7 7 5 6 7 6 7 8 8 9 11 12 12 11 12 11 11 15 18 16 14 12 11 11 12 13 12 11 12 12 12 13 14
28 26 23 22 21 21 21 19 17 14 13 12 12 12 12 11 11 10 8 8 8 7 7 6 5 6 7 8 7 8 8 7 6 6 6 6 7 7 8 9 10 11 11 10 12 12 11 13 17 19 16 12 11 11 12 13 12 11 12 12 11 13 14
28 26 22 21 21 21 21 18 16 15 13 12 11 11 11 10 10 9 8 8 7 7 7 6 5 5 7 7 7 7 7 7 7 7 7 6 7 7 8 9 9 10 10 10 12 12 11 12 16 19 16 11 9 11 12 11 13 13 11 11 12 13 14
27 23 20 21 22 22 20 16 15 14 13 11 11 11 10 10 10 9 9 8 8 7 6 5 5 5 5 6 6 6 6 6 6 6 7 7 7 7 8 8 9 10 10 11 12 12 11 11 15 18 15 10 9 12 13 12 14 15 11 11 12 13 15
24 21 21 23 23 21 19 16 15 14 13 12 11 10 10 10 10 9 9 8 8 8 6 5 5 5 5 5 6 6 5 5 5 6 6 6 6 7 8 8 9 10 11 11 11 12 12 12 15 17 15 9 9 12 12 12 16 16 12 12 12 13 15
23 20 22 25 25 22 19 17 16 14 13 12 11 10 10 10 9 9 8 8 8 9 7 6 5 5 5 5 5 6 6 6 6 6 5 4 6 8 8 9 9 10 11 10 11 13 14 14 16 16 13 9 9 11 10 11 16 16 13 14 13 13 14
23 22 25 25 23 20 18 17 16 14 13 12 11 10 10 10 9 8 8 8 8 9 8 7 6 5 5 5 5 5 6 6 6 5 4 4 5 6 8 10 10 10 10 10 12 13 13 16 17 15 12 10 10 11 9 10 15 17 15 14 14 13 14
23 24 26 24 21 19 18 17 15 14 13 11 10 10 10 10 9 8 8 7 7 8 8 7 6 6 6 6 6 6 6 6 6 5 5 5 5 7 9 10 10 11 11 11 12 13 13 15 15 14 13 12 10 11 9 9 12 15 16 14 13 13 13
25 24 23 21 19 19 17 16 15 14 12 11 10 10 10 10 10 9 8 8 7 7 7 6 6 6 6 6 6 7 7 7 6 6 5 4 4 6 9 9 10 11 12 11 12 14 14 14 13 13 13 12 11 11 11 10 9 11 13 13 13 12 13
26 24 22 21 19 19 17 16 15 14 11 11 11 11 10 10 10 8 8 7 7 7 6 5 5 5 5 6 6 7 8 8 7 6 6 5 3 5 9 9 9 10 10 11 12 13 14 14 13 12 13 12 11 11 12 11 10 9 10 11 12 13 13
25 23 20 20 20 18 16 15 14 13 11 11 11 11 10 10 9 8 8 7 6 6 6 6 7 7 7 6 6 7 8 8 8 7 7 6 3 3 7 10 9 10 10 11 12 13 13 13 12 12 12 12 11 11 12 12 11 11 11 11 12 12 13
24 22 19 20 20 18 16 15 15 14 12 12 12 11 10 10 9 8 8 7 6 7 8 10 11 11 11 9 6 6 7 8 8 9 8 7 5 4 5 9 12 12 11 12 15 15 14 14 13 12 11 12 11 10 11 12 12 12 12 13 13 13 14
24 24 21 20 20 18 16 17 16 15 14 13 13 12 11 10 8 7 7 7 7 9 12 12 13 13 12 11 8 6 7 7 8 9 8 8 8 6 5 8 12 12 10 11 14 15 16 16 15 13 12 12 12 11 10 11 12 12 12 13 13 13 14
26 25 23 21 20 18 18 19 19 18 17 17 16 15 13 11 9 9 8 6 6 7 9 10 12 13 12 12 11 9 6 6 8 9 9 9 9 8 7 7 10 11 10 10 11 13 14 14 13 14 14 13 13 13 12 11 11 11 11 11 12 13 13
27 27 27 26 24 22 23 24 23 20 19 19 18 16 13 11 10 10 8 7 6 6 7 7 7 9 10 12 13 11 7 4 7 8 8 8 8 9 9 8 8 10 10 10 11 11 12 12 11 12 13 13 13 14 14 14 13 11 11 11 12 12 12
28 29 28 26 25 25 26 24 22 21 18 16 14 12 10 9 9 10 9 9 9 8 7 6 5 5 7 8 10 10 7 3 6 7 8 8 7 8 9 9 9 9 10 12 12 11 11 12 13 12 13 14 14 15 16 17 17 16 15 14 12 12 11
26 27 25 24 24 25 24 21 21 18 12 10 11 11 9 9 10 11 11 11 11 8 6 6 6 5 5 5 6 8 7 5 6 6 7 8 7 7 8 9 9 9 10 12 13 11 9 10 13 14 14 15 16 17 17 18 18 19 18 18 18 17 15
23 24 24 24 24 23 23 22 20 15 9 7 9 10 8 9 10 11 11 11 10 8 6 5 4 5 5 5 5 6 7 6 5 5 6 7 7 7 7 8 8 7 7 8 11 12 11 9 10 12 13 14 15 16 18 19 20 21 20 20 21 21 21
23 24 23 23 22 21 21 19 15 10 8 7 9 10 10 10 11 11 11 9 8 7 6 6 5 4 4 4 5 5 5 4 4 5 6 7 7 6 7 8 8 6 6 8 11 14 14 14 14 13 12 13 14 15 16 18 21 23 22 22 22 22 23
19 20 21 20 19 17 15 13 11 10 10 10 10 11 11 11 12 11 10 9 8 7 6 6 6 6 6 6 5 4 3 3 4 5 5 6 6 6 8 9 9 9 11 13 15 16 16 16 17 17 15 15 16 17 18 18 21 25 25 24 24 24 25
17 17 17 16 15 14 12 11 11 11 11 11 10 11 11 11 11 10 8 8 7 6 6 6 6 7 7 7 7 7 4 2 3 4 4 4 5 7 10 12 11 12 14 15 16 18 17 17 18 19 19 19 18 19 20 19 21 25 26 26 26 26 26
16 16 16 16 15 15 14 12 12 11 10 9 9 9 9 9 8 7 6 6 6 6 6 6 6 7 7 7 8 9 8 5 5 7 6 5 5 7 11 13 14 15 17 17 18 20 20 20 20 21 22 23 23 23 23 22 24 26 27 27 27 28 29
16 15 16 16 15 14 12 10 10 10 9 7 7 7 6 5 5 5 5 5 6 5 5 5 5 5 6 7 8 9 9 9 9 10 9 9 7 6 9 14 16 18 19 20 21 22 23 23 24 24 25 26 27 27 27 28 29 30 31 31 31 32 32
16 15 14 14 13 11 10 9 8 8 7 6 5 5 4 3 4 5 6 6 6 6 6 7 8 8 8 9 10 11 11 10 11 12 12 13 11 8 7 11 16 19 22 23 23 23 24 25 26 27 27 28 29 30 31 32 33 34 36 36 36 34 33
14 14 14 13 12 11 10 9 8 7 6 5 5 4 4 4 4 5 6 7 8 9 9 10 11 11 11 12 13 14 14 14 15 15 15 16 16 13 10 12 19 24 26 27 27 26 27 27 29 30 30 31 31 32 33 34 34 35 36 36 35 33 31
11 11 11 10 9 8 8 7 6 5 4 3 1 2 2 2 3 2 3 4 7 9 11 11 12 12 13 14 14 15 16 16 17 18 18 18 19 19 19 22 27 29 29 30 31 31 31 32 32 33 33 34 34 35 36 36 36 36 36 35 35 34 32
8 8 8 8 7 6 6 5 4 3 4 4 3 1 1 1 1 1 1 1 1 5 9 12 12 11 13 14 15 15 16 17 18 18 18 19 20 21 24 26 29 29 29 30 31 31 32 33 33 34 34 34 35 36 37 38 37 37 37 36 35 35 34
Wind_Direction
201 197 197 199 213 217 208 198 197 194 192 191 193 193 194 200 200 204 205 197 198 199 197 198 196 202 202 197 211 207 195 208 203 192 200 204 199 202 209 212 206 190 189 196 186 175 167 163 168 164 169 171 150 137 135 135 149 140 123 120 129 142 145
197 194 192 193 204 214 208 197 196 190 185 185 187 189 191 192 189 191 193 190 194 191 191 198 197 201 198 197 211 208 202 218 217 201 199 199 200 199 197 201 195 173 173 192 200 193 181 166 163 160 159 165 154 135 129 140 151 138 127 127 126 128 131
198 198 195 194 200 211 210 199 192 184 181 182 184 187 188 186 183 186 187 183 187 184 181 193 198 199 197 200 212 213 211 216 214 210 207 206 206 193 184 198 198 180 171 180 202 196 180 170 165 162 160 157 146 134 134 138 140 139 137 131 122 123 123
199 199 198 198 199 208 212 202 189 181 182 183 186 188 184 182 183 186 187 184 184 181 180 190 192 191 193 200 212 215 215 215 210 212 213 211 208 197 196 204 199 191 180 178 192 184 173 173 162 155 156 156 145 134 140 145 142 142 138 132 132 133 127
198 199 197 196 194 200 207 201 187 181 183 184 187 190 183 181 183 185 188 186 184 182 185 191 186 185 190 198 214 218 214 215 213 208 207 212 212 206 209 210 206 202 194 192 198 188 178 171 160 158 157 153 146 141 149 153 146 144 142 139 139 133 130
197 196 195 195 193 197 200 192 182 178 181 183 187 192 188 184 184 185 187 187 187 189 191 192 184 183 192 196 211 221 216 214 216 211 208 214 214 208 208 209 210 210 206 206 203 194 190 178 165 163 160 155 149 148 154 154 148 149 146 142 142 138 136
195 194 196 194 190 194 191 180 174 172 175 180 186 193 191 187 189 188 188 190 192 193 193 195 188 186 198 197 200 218 218 213 219 221 218 219 213 208 208 209 209 208 207 207 194 188 189 180 171 165 160 155 152 151 155 157 155 153 149 147 146 141 137
193 191 194 191 185 187 183 173 169 168 173 178 183 191 187 185 192 191 190 195 198 194 190 193 189 188 200 192 192 217 221 217 224 224 223 226 216 209 211 213 213 208 205 206 194 190 185 176 173 172 165 157 156 158 157 158 160 157 152 150 146 145 148
189 190 192 189 183 179 175 171 168 167 173 174 175 179 176 181 188 184 185 192 196 193 193 194 190 192 198 191 199 226 223 217 225 219 224 233 219 214 219 216 216 212 206 204 197 197 195 179 172 173 171 165 162 161 157 159 160 155 155 152 148 152 156
184 188 189 186 182 176 170 169 169 170 170 167 170 171 168 175 178 172 178 188 185 186 193 195 194 198 196 188 201 221 219 216 219 214 225 232 220 223 225 214 213 214 207 207 206 202 196 183 171 169 176 175 168 162 161 161 155 153 159 159 155 156 157
180 185 184 181 180 174 171 172 171 169 166 164 169 169 163 167 170 166 174 186 183 183 185 183 189 199 195 190 194 197 208 221 220 216 227 230 223 227 227 214 210 210 204 207 212 202 188 186 180 174 175 176 175 171 167 161 153 157 164 162 162 162 160
181 186 183 179 177 174 176 177 172 167 166 168 171 168 160 160 164 161 165 176 180 184 185 179 185 195 189 190 193 189 199 208 202 210 221 228 227 221 221 219 208 203 200 203 208 197 178 181 182 175 168 169 182 182 175 164 152 158 167 164 166 165 165
183 187 184 177 174 177 179 174 169 168 166 168 171 165 158 159 160 156 157 166 174 184 187 178 181 191 188 188 188 189 200 200 196 206 209 217 227 218 220 222 205 201 204 197 197 194 181 175 178 176 168 167 185 184 185 177 153 154 168 166 165 167 170
182 182 181 177 175 178 175 167 167 169 164 166 168 162 157 161 162 160 161 166 173 184 188 182 182 185 184 182 178 186 200 194 194 209 207 210 218 214 223 220 203 205 206 193 186 187 185 177 176 177 172 173 186 183 189 182 152 151 166 166 165 171 174
177 177 178 177 177 177 171 166 170 166 161 165 164 157 159 162 161 164 167 168 175 182 184 189 185 171 174 178 169 172 182 177 186 202 204 208 208 206 215 211 203 207 199 189 184 182 184 181 174 173 172 175 180 179 187 173 149 150 166 169 169 174 177
172 174 176 175 177 175 168 167 169 164 162 163 158 158 164 162 160 165 170 172 176 178 179 187 183 173 184 186 172 172 172 171 186 188 185 207 211 208 207 202 205 207 192 186 190 185 185 186 177 169 171 177 171 175 189 172 153 156 168 173 174 177 181
170 170 172 174 176 172 167 168 166 161 161 159 158 165 166 161 161 166 171 174 176 175 178 186 181 176 186 183 178 186 179 173 181 177 180 205 211 214 210 202 204 202 190 189 193 188 188 185 175 165 168 175 169 174 189 175 162 164 169 175 181 182 187
168 168 171 172 172 170 167 166 164 161 161 159 161 165 161 157 160 162 162 168 174 173 176 184 180 180 190 184 178 184 183 180 179 179 194 204 206 215 208 202 207 200 191 194 191 184 181 174 168 169 174 176 171 174 182 177 168 169 170 177 186 188 192
164 166 171 169 169 172 168 163 164 161 160 166 165 158 153 152 153 156 158 161 167 170 174 183 182 185 195 190 182 183 183 184 184 188 200 199 211 217 196 192 211 205 192 193 185 176 175 172 172 179 181 180 178 175 177 181 179 178 177 180 189 194 197
167 167 173 172 171 172 169 167 166 161 163 173 164 149 150 151 148 153 157 157 163 166 165 174 181 188 200 199 194 191 186 185 185 188 193 188 203 216 191 186 210 210 193 186 178 172 174 175 176 181 181 184 186 181 181 186 189 194 194 192 196 201 204
168 168 172 177 178 174 172 169 162 158 163 164 153 149 151 148 145 152 157 157 158 156 158 177 185 182 186 195 199 198 194 192 192 193 194 192 191 202 191 183 192 206 196 176 170 174 179 180 180 182 183 184 186 186 189 195 200 204 206 207 209 212 212
177 179 178 179 180 177 172 165 159 163 165 153 146 149 147 145 147 150 154 153 153 164 181 194 190 177 173 176 183 200 204 198 202 207 203 202 201 194 195 191 191 201 199 181 177 179 180 183 183 181 186 192 192 192 194 201 209 212 214 218 220 220 220
182 186 184 177 175 173 167 160 157 158 155 147 144 143 139 140 141 138 147 160 176 194 202 203 195 184 177 169 163 182 205 203 206 212 208 210 211 196 193 208 204 200 197 191 189 185 184 188 188 184 190 199 200 201 206 210 215 217 218 221 224 225 226
165 170 171 165 162 159 155 155 158 161 161 159 154 148 143 142 145 153 169 189 208 210 208 206 200 195 187 175 162 159 179 203 209 212 209 211 214 203 196 213 213 201 197 196 193 190 191 194 195 193 195 198 198 199 204 211 217 223 226 227 229 230 230
162 162 163 163 164 166 166 166 167 170 168 162 155 152 153 158 168 181 197 212 206 193 189 190 191 193 189 186 180 164 154 195 213 211 212 212 211 207 202 209 212 201 197 200 198 200 206 210 212 211 210 212 212 206 204 207 211 216 224 231 235 236 235
172 172 172 172 175 178 177 171 165 163 163 165 172 179 184 194 203 208 214 209 193 183 178 169 163 176 178 184 192 175 152 183 217 210 212 213 211 209 206 211 217 210 208 213 210 211 223 231 232 230 227 228 228 224 221 219 217 215 216 223 231 236 241
176 183 183 183 183 182 180 174 170 174 186 202 206 206 211 219 217 213 215 211 202 193 184 170 163 171 169 170 185 177 162 182 210 206 207 208 206 206 206 210 217 219 224 230 226 218 223 241 249 246 240 239 239 239 239 236 235 234 233 232 235 239 243
173 180 181 184 185 184 182 180 185 202 225 216 195 195 203 209 208 208 211 212 207 201 195 188 175 169 172 172 175 182 186 194 203 209 215 214 211 213 213 209 209 214 225 235 237 230 221 228 247 251 248 248 248 249 251 250 249 250 251 251 252 252 253
168 173 176 180 181 181 182 184 191 205 207 184 179 185 190 194 198 200 200 197 195 196 199 205 204 196 197 193 184 191 202 203 205 215 221 223 222 227 231 224 221 230 239 239 243 244 235 230 235 244 248 251 251 251 253 256 258 259 261 261 261 259 258
165 174 179 180 179 179 183 183 178 176 177 177 179 181 183 189 192 192 193 191 187 190 196 202 209 212 213 210 208 211 216 226 228 221 222 230 226 224 232 230 225 231 239 240 242 248 250 246 245 248 252 254 255 254 254 257 263 268 268 265 262 260 260
154 163 170 171 170 169 170 167 161 163 173 179 180 180 182 188 188 185 187 192 193 198 205 208 214 220 222 222 224 220 209 229 252 229 230 253 250 242 246 245 240 239 242 246 249 253 257 257 254 254 255 257 258 260 262 264 267 269 268 264 262 260 259
135 140 145 149 149 150 154 158 161 165 173 180 180 178 183 195 196 185 186 203 210 212 219 226 229 233 234 233 238 233 217 207 226 228 227 245 258 260 264 263 258 254 253 254 256 258 260 260 259 258 258 259 260 261 262 261 261 263 264 262 262 262 261
130 133 139 142 142 144 151 159 164 167 171 175 175 173 179 198 203 197 204 224 229 224 225 233 237 244 247 246 253 256 241 227 239 248 248 252 257 268 279 276 270 266 264 261 260 261 263 263 263 262 261 262 264 264 262 259 258 260 264 265 266 268 269
127 128 132 135 135 137 141 144 147 147 147 149 157 166 171 176 186 204 221 232 243 248 250 251 250 251 256 257 259 265 262 254 255 258 257 258 257 256 272 278 272 267 267 267 264 264 265 266 266 266 266 265 265 266 266 266 265 265 267 268 269 269 269
125 128 130 133 135 135 137 140 144 147 151 159 174 187 202 215 221 235 246 252 259 260 257 259 262 260 259 260 261 264 267 266 262 260 258 259 257 249 245 254 258 260 264 268 269 268 267 266 266 266 265 265 265 265 265 266 267 266 267 269 271 271 270
118 122 124 126 128 131 135 136 139 147 146 137 157 194 203 227 244 266 281 284 287 283 274 270 271 272 271 271 269 268 269 269 268 267 265 264 262 257 250 251 256 261 266 270 272 273 273 272 270 269 268 267 266 266 266 267 268 269 268 268 269 269 268
109 114 116 118 117 119 122 112 103 121 122 106 93 91 110 134 151 131 138 180 303 302 293 287 282 279 278 277 275 275 275 274 272 273 272 271 270 267 264 264 268 271 273 274 275 275 275 275 275 274 273 272 271 270 270 270 271 271 272 271 270 269 267